Location: Mountain_View
(35.6670°N, 81.4000°W)
Time: 20:44:00
(UTC-04:00)

Amateur Radio Satellites - All Passes

Search period start: 22 October 2017 20:14
Search period end: 23 October 2017 20:14
Location: Mountain_View, 35.6670°N, 81.4000°W

Satellite Date Start Highest point End Downlink Frequencies (MHz)
Time Altitude Azimuth
CUBEBUG 2 22 Oct 20:18:27 20:23:07 79° 260° (W) 20:27:53 437.445
XW-2A 22 Oct 20:23:01 20:26:25 77° 77° (ENE) 20:29:50 145.665 - 145.685
ZACube-1 22 Oct 20:23:23 20:27:30 34° 72° (ENE) 20:31:37 437.345
CUTE 1.7 + AOD 2 22 Oct 20:28:26 20:32:12 31° 263° (W) 20:35:57 437.475
SEEDS 22 Oct 20:30:05 20:34:08 50° 261° (W) 20:38:12 437.485
HO-68 22 Oct 20:45:14 20:51:41 36° 262° (W) 20:58:11 435.675
AAUSAT CUBESAT 2 22 Oct 20:45:55 20:50:00 80° 257° (WSW) 20:54:07 437.432
O/OREOS (USA 219) 22 Oct 20:49:55 20:54:28 80° 109° (ESE) 20:59:04 437.305
UWE-3 22 Oct 20:51:11 20:55:46 60° 260° (W) 21:00:25 435.000/436.395/437.385
YUBILEINY 22 Oct 20:55:20 21:03:58 57° 79° (E) 21:12:37 435.215
Oscar 11 22 Oct 20:55:32 20:59:40 44° 74° (ENE) 21:03:48 .
BEESAT 2 22 Oct 20:58:35 21:00:13 12° 47° (NE) 21:01:51 435.950
FO-29 22 Oct 20:58:49 21:04:04 21° 93° (E) 21:09:31 435.910
BEESAT 3 22 Oct 21:07:24 21:11:13 46° 57° (ENE) 21:14:58 437.485
STRAND 1 22 Oct 21:34:52 21:39:40 40° 289° (WNW) 21:44:26 437.568
AO-73 22 Oct 21:35:36 21:39:53 40° 262° (W) 21:44:12 145.935
DELFI C3 22 Oct 21:49:42 21:53:15 35° 73° (ENE) 21:56:50 145.870
EO-88 22 Oct 21:55:10 21:57:50 19° 70° (ENE) 22:00:30 145.990 - 145.960
ZACube-1 22 Oct 22:00:27 22:03:47 20° 266° (W) 22:07:08 437.345
UNISAT 6 22 Oct 22:02:42 22:03:51 11° 91° (E) 22:05:00 437.425
AO-85 22 Oct 22:10:05 22:14:34 47° 57° (ENE) 22:19:22 145.980
Max Valier Satellite 22 Oct 22:10:08 22:13:41 44° 75° (ENE) 22:17:15 145.860
TIGRISAT 22 Oct 22:15:31 22:18:01 15° 92° (E) 22:20:28 435.000
Oscar 11 22 Oct 22:33:57 22:35:59 13° 268° (W) 22:38:00 .
BEESAT 2 22 Oct 22:34:21 22:38:20 60° 243° (WSW) 22:42:13 435.950
FO-29 22 Oct 22:42:15 22:49:21 70° 286° (WNW) 22:57:02 435.910
BEESAT 3 22 Oct 22:46:59 22:48:17 11° 252° (WSW) 22:49:34 437.485
YUBILEINY 22 Oct 22:53:10 23:00:08 27° 277° (W) 23:07:08 435.215
ESTCUBE 1 22 Oct 23:22:15 23:25:49 24° 69° (ENE) 23:29:23 437.505/2401.250
DELFI C3 22 Oct 23:26:13 23:28:06 13° 267° (W) 23:29:58 145.870
EO-88 22 Oct 23:28:31 23:31:19 21° 264° (W) 23:34:08 145.990 - 145.960
UNISAT 6 22 Oct 23:36:25 23:40:54 57° 285° (WNW) 23:45:16 437.425
RS-15 22 Oct 23:43:36 23:54:09 36° 105° (ESE) 00:04:44 29.354- 29.394
TIGRISAT 22 Oct 23:50:34 23:54:53 43° 287° (WNW) 23:59:06 435.000
PRISM 22 Oct 23:50:51 23:54:59 84° 100° (E) 23:59:08 437.425
AO-85 22 Oct 23:51:30 23:54:41 18° 250° (WSW) 23:57:59 145.980
LO-87 23 Oct 00:08:09 00:11:41 59° 260° (W) 00:15:16 145.935 - 145.965
QB50P2 23 Oct 00:25:45 00:28:48 19° 95° (E) 00:31:47 145.880/145.840
NANOSAT C BR1 23 Oct 00:26:35 00:29:00 15° 93° (E) 00:31:25 145.865
FO-29 23 Oct 00:30:58 00:33:19 12° 301° (WNW) 00:35:42 435.910
DUCHIFAT 1 23 Oct 00:35:28 00:38:10 16° 94° (E) 00:40:51 145.980
VELOX 1 23 Oct 00:35:58 00:39:31 25° 69° (ENE) 00:43:04 145.980
ESTCUBE 1 23 Oct 00:58:39 01:02:27 27° 263° (W) 01:06:16 437.505/2401.250
SPROUT 23 Oct 01:04:38 01:08:54 80° 78° (ENE) 01:13:13 437.525
AIST 2D 23 Oct 01:07:01 01:10:13 35° 286° (WNW) 01:13:24 435.315
DX 1 23 Oct 01:33:10 01:36:42 25° 70° (ENE) 01:40:15 434.975-435.025
EO-79 23 Oct 01:34:21 01:38:34 69° 285° (WNW) 01:42:46 145.935-145.965
POLYITAN 1 23 Oct 01:39:57 01:44:09 59° 285° (WNW) 01:48:17 437.675
50 SAT 23 Oct 01:42:40 01:45:37 32° 73° (ENE) 01:48:34 437.505
Oscar 19 23 Oct 01:44:25 01:46:47 13° 92° (E) 01:49:08 437.125/150
NO-84 23 Oct 01:49:43 01:53:10 24° 124° (ESE) 01:56:39 435.350 FM
UKube-1 23 Oct 01:51:12 01:54:41 25° 70° (ENE) 01:58:12 .
RS-15 23 Oct 01:53:46 02:05:54 64° 304° (NW) 02:18:09 29.354- 29.394
QB50P2 23 Oct 02:00:51 02:04:34 30° 289° (WNW) 02:08:15 145.880/145.840
NANOSAT C BR1 23 Oct 02:00:54 02:04:50 37° 287° (WNW) 02:08:42 145.865
BUGSAT 1 23 Oct 02:06:07 02:10:11 46° 100° (E) 02:14:10 437.445
DUCHIFAT 1 23 Oct 02:10:04 02:13:53 33° 288° (WNW) 02:17:40 145.980
VELOX 1 23 Oct 02:12:15 02:15:50 25° 264° (W) 02:19:26 145.980
Gurwin Techsat 1B 23 Oct 02:36:47 02:41:32 32° 97° (E) 02:46:16 435.225
M-CUBED/EXP-1 PRIME 23 Oct 02:40:23 02:43:36 27° 103° (ESE) 02:47:00 437.505
BEESAT 23 Oct 02:44:19 02:46:27 13° 64° (ENE) 02:48:35 436.000
DX 1 23 Oct 03:09:18 03:12:46 24° 264° (W) 03:16:16 434.975-435.025
MOZHAYETS 4 23 Oct 03:09:19 03:13:07 25° 69° (ENE) 03:16:54
Oscar 19 23 Oct 03:21:24 03:26:26 60° 287° (WNW) 03:31:27 437.125/150
NO-84 23 Oct 03:26:21 03:30:24 39° 319° (NW) 03:34:26 435.350 FM
UKube-1 23 Oct 03:27:08 03:30:36 24° 264° (W) 03:34:05 .
BUGSAT 1 23 Oct 03:43:13 03:45:03 13° 294° (WNW) 03:46:53 437.445
AO-7 23 Oct 04:01:34 04:08:42 31° 98° (E) 04:15:47 .
ITAMSAT 1 23 Oct 04:01:44 04:05:08 17° 94° (E) 04:08:29 435.822/435.867
ITUPSAT 1 23 Oct 04:05:20 04:10:08 88° 255° (WSW) 04:14:58 437.325
RS-15 23 Oct 04:12:46 04:21:32 21° 332° (NNW) 04:30:14 29.354- 29.394
M-CUBED/EXP-1 PRIME 23 Oct 04:15:15 04:17:50 18° 294° (WNW) 04:20:33 437.505
Gurwin Techsat 1B 23 Oct 04:16:53 04:21:19 27° 292° (WNW) 04:25:43 435.225
BEESAT 23 Oct 04:18:56 04:23:39 61° 259° (W) 04:28:24 436.000
MOZHAYETS 4 23 Oct 04:46:12 04:50:07 27° 264° (W) 04:54:03
CUBESAT XI-V 23 Oct 05:04:28 05:09:05 85° 254° (WSW) 05:13:43 437.345
DOVE 4 23 Oct 05:14:49 05:16:51 12° 91° (E) 05:18:54 437.250
SO-50 23 Oct 05:24:04 05:24:46 10° 107° (ESE) 05:25:28 436.795
ITAMSAT 1 23 Oct 05:39:45 05:44:48 49° 288° (WNW) 05:49:49 435.822/435.867
KKS-1 23 Oct 05:50:33 05:54:58 87° 73° (ENE) 05:59:26 437.445
AO-7 23 Oct 05:53:40 06:01:38 53° 294° (WNW) 06:09:36 .
JUGNU 23 Oct 06:10:48 06:14:03 15° 173° (S) 06:17:18 437.505
STARS 23 Oct 06:14:40 06:18:59 62° 75° (ENE) 06:23:21 437.465
CUTE-I 23 Oct 06:32:42 06:35:38 15° 92° (E) 06:38:32 437.470
RS-15 23 Oct 06:34:52 06:41:04 15° 9° (N) 06:47:07 29.354- 29.394
DOVE 4 23 Oct 06:49:45 06:54:49 69° 284° (WNW) 07:00:03 437.250
KAITUO 1B 23 Oct 06:54:17 06:56:51 18° 95° (E) 06:59:24 145.475/437.950
SO-50 23 Oct 07:00:10 07:04:36 65° 301° (WNW) 07:09:05 436.795
XW-2F 23 Oct 07:00:52 07:04:09 29° 97° (E) 07:07:24 145.980 - 146.000
O/OREOS (USA 219) 23 Oct 07:02:53 07:07:30 88° 248° (WSW) 07:12:03 437.305
NUDT-PHONESAT 23 Oct 07:02:59 07:05:52 22° 96° (E) 07:08:45 437.300
STRAND 1 23 Oct 07:09:43 07:13:39 23° 67° (ENE) 07:17:35 437.568
LilacSat-2 23 Oct 07:12:26 07:16:06 49° 100° (E) 07:19:44 437.200
XW-2D 23 Oct 07:15:29 07:19:09 52° 100° (E) 07:22:47 145.860 - 145.880
XW-2B 23 Oct 07:28:59 07:32:44 78° 101° (E) 07:36:28 145.730 - 145.750
PCSat 23 Oct 07:32:00 07:36:40 30° 108° (ESE) 07:41:22 145.827
XW-2C 23 Oct 07:52:34 07:56:09 47° 286° (WNW) 07:59:45 145.795 - 145.815
JUGNU 23 Oct 07:58:47 08:02:18 16° 184° (S) 08:05:48 437.505
YUBILEINY 23 Oct 08:04:53 08:05:37 10° 75° (ENE) 08:06:21 435.215
CUTE-I 23 Oct 08:10:42 08:16:00 59° 287° (WNW) 08:21:16 437.470
CUBEBUG 2 23 Oct 08:12:54 08:16:47 27° 95° (E) 08:20:32 437.445
HO-68 23 Oct 08:15:13 08:22:15 53° 101° (E) 08:29:14 435.675
CUTE 1.7 + AOD 2 23 Oct 08:15:28 08:19:35 52° 100° (E) 08:23:41 437.475
SEEDS 23 Oct 08:16:42 08:20:25 31° 97° (E) 08:24:07 437.485
ISS 23 Oct 08:21:44 08:23:47 16° 128° (SE) 08:25:51 437.550
KAITUO 1B 23 Oct 08:27:49 08:30:45 23° 289° (WNW) 08:33:42 145.475/437.950
AAUSAT CUBESAT 2 23 Oct 08:31:32 08:34:29 19° 94° (E) 08:37:26 437.432
XW-2F 23 Oct 08:35:49 08:37:59 15° 291° (WNW) 08:40:07 145.980 - 146.000
NUDT-PHONESAT 23 Oct 08:36:58 08:39:33 18° 290° (WNW) 08:42:07 437.300
SRMSAT 23 Oct 08:40:13 08:43:08 14° 171° (S) 08:46:03 437.500
UWE-3 23 Oct 08:44:09 08:48:09 33° 97° (E) 08:52:03 435.000/436.395/437.385
STRAND 1 23 Oct 08:47:49 08:52:32 38° 262° (W) 08:57:19 437.568
RS-15 23 Oct 08:48:13 08:58:53 35° 43° (NE) 09:09:01 29.354- 29.394
FO-29 23 Oct 08:52:56 08:57:37 34° 68° (ENE) 09:02:38 435.910
TIGRISAT 23 Oct 09:13:30 09:13:53 10° 63° (ENE) 09:14:17 435.000
PCSat 23 Oct 09:15:08 09:19:57 32° 304° (NW) 09:24:49 145.827
nSIGHT-1 23 Oct 09:15:39 09:18:49 85° 143° (SE) 09:22:02 .
XW-2A 23 Oct 09:19:51 09:23:09 63° 283° (WNW) 09:26:25 145.665 - 145.685
AO-73 23 Oct 09:26:23 09:30:31 46° 98° (E) 09:34:33 145.935
JUGNU 23 Oct 09:48:58 09:50:30 11° 193° (SSW) 09:52:01 437.505
CUBEBUG 2 23 Oct 09:49:35 09:53:13 24° 291° (WNW) 09:56:46 437.445
ZACube-1 23 Oct 09:50:20 09:54:40 77° 284° (WNW) 09:58:52 437.345
YUBILEINY 23 Oct 09:52:06 10:00:43 72° 93° (E) 10:09:23 435.215
SEEDS 23 Oct 09:52:59 09:55:50 18° 291° (WNW) 09:58:40 437.485
CUTE 1.7 + AOD 2 23 Oct 09:53:33 09:54:54 11° 294° (WNW) 09:56:16 437.475
ISS 23 Oct 09:56:55 10:00:00 39° 323° (NW) 10:03:05 437.550
NO-84 23 Oct 10:02:23 10:05:58 36° 40° (NE) 10:09:15 435.350 FM
HO-68 23 Oct 10:03:44 10:09:32 27° 297° (WNW) 10:15:18 435.675
AAUSAT CUBESAT 2 23 Oct 10:06:22 10:09:54 28° 288° (WNW) 10:13:26 437.432
UWE-3 23 Oct 10:21:15 10:24:19 19° 292° (WNW) 10:27:18 435.000/436.395/437.385
Oscar 11 23 Oct 10:21:20 10:25:33 56° 285° (WNW) 10:29:44 .
SRMSAT 23 Oct 10:27:53 10:31:31 17° 181° (S) 10:35:10 437.500
UNISAT 6 23 Oct 10:31:20 10:35:59 84° 76° (ENE) 10:40:43 437.425
PRISM 23 Oct 10:37:04 10:40:48 37° 72° (ENE) 10:44:32 437.425
FO-29 23 Oct 10:38:38 10:42:49 24° 266° (W) 10:47:14 435.910
TIGRISAT 23 Oct 10:45:13 10:49:51 75° 258° (WSW) 10:54:34 435.000
nSIGHT-1 23 Oct 10:53:57 10:55:29 13° 334° (NNW) 10:57:01 .
BEESAT 3 23 Oct 10:55:11 10:57:36 16° 109° (ESE) 11:00:02 437.485
EO-88 23 Oct 10:58:59 11:02:21 35° 99° (E) 11:05:42 145.990 - 145.960
RS-15 23 Oct 11:00:34 11:12:14 70° 247° (WSW) 11:23:15 29.354- 29.394
DELFI C3 23 Oct 11:03:18 11:07:17 89° 268° (W) 11:11:16 145.870
AO-73 23 Oct 11:04:19 11:06:17 13° 294° (WNW) 11:08:13 145.935
Max Valier Satellite 23 Oct 11:16:12 11:19:52 84° 283° (WNW) 11:23:30 145.860
QB50P2 23 Oct 11:17:46 11:18:29 10° 65° (ENE) 11:19:12 145.880/145.840
AIST 2D 23 Oct 11:37:45 11:41:04 41° 75° (ENE) 11:44:23 435.315
LO-87 23 Oct 11:39:19 11:40:55 13° 93° (E) 11:42:32 145.935 - 145.965
NO-84 23 Oct 11:40:29 11:43:02 18° 238° (WSW) 11:45:26 435.350 FM
YUBILEINY 23 Oct 11:52:04 11:58:17 21° 292° (WNW) 12:04:34 435.215
PRISM 23 Oct 12:14:06 12:16:10 14° 266° (W) 12:18:16 437.425
SRMSAT 23 Oct 12:17:22 12:19:55 13° 191° (S) 12:22:28 437.500
BEESAT 2 23 Oct 12:22:14 12:26:01 44° 115° (ESE) 12:29:53 435.950
AO-85 23 Oct 12:22:52 12:26:04 25° 112° (ESE) 12:29:18 145.980
EO-79 23 Oct 12:23:15 12:27:24 56° 75° (ENE) 12:31:37 145.935-145.965
POLYITAN 1 23 Oct 12:28:53 12:33:07 67° 76° (ENE) 12:37:23 437.675
BEESAT 3 23 Oct 12:31:06 12:34:48 36° 304° (NW) 12:38:33 437.485
EO-88 23 Oct 12:34:20 12:35:37 12° 292° (WNW) 12:36:53 145.990 - 145.960
NANOSAT C BR1 23 Oct 12:49:06 12:53:21 79° 258° (WSW) 12:57:38 145.865
QB50P2 23 Oct 12:49:29 12:53:42 61° 259° (W) 12:57:57 145.880/145.840
ESTCUBE 1 23 Oct 12:52:59 12:57:28 77° 102° (ESE) 13:01:57 437.505/2401.250
BUGSAT 1 23 Oct 12:53:07 12:56:23 22° 69° (ENE) 12:59:41 437.445
SPROUT 23 Oct 12:54:13 12:56:59 17° 94° (E) 12:59:44 437.525
DUCHIFAT 1 23 Oct 12:57:54 13:02:08 71° 259° (W) 13:06:23 145.980
Oscar 19 23 Oct 12:58:24 13:01:26 16° 64° (ENE) 13:04:28 437.125/150
LO-87 23 Oct 13:11:10 13:14:24 31° 287° (WNW) 13:17:36 145.935 - 145.965
RS-15 23 Oct 13:19:05 13:22:12 11° 265° (W) 13:25:17 29.354- 29.394
M-CUBED/EXP-1 PRIME 23 Oct 13:24:41 13:26:58 17° 66° (ENE) 13:29:12 437.505
Gurwin Techsat 1B 23 Oct 13:54:55 13:59:48 39° 71° (ENE) 14:04:43 435.225
BEESAT 2 23 Oct 14:01:33 14:03:58 15° 311° (NW) 14:06:25 435.950
AO-85 23 Oct 14:03:20 14:06:22 21° 308° (NW) 14:09:28 145.980
VELOX 1 23 Oct 14:03:54 14:08:22 75° 102° (ESE) 14:12:48 145.980
BUGSAT 1 23 Oct 14:28:06 14:31:34 25° 264° (W) 14:35:06 437.445
SPROUT 23 Oct 14:29:03 14:32:57 34° 288° (WNW) 14:36:49 437.525
Oscar 19 23 Oct 14:35:12 14:40:15 56° 259° (W) 14:45:19 437.125/150
50 SAT 23 Oct 14:35:55 14:39:06 45° 100° (E) 14:42:16 437.505
ISS 23 Oct 14:52:24 14:53:03 10° 23° (NNE) 14:53:41 437.550
AO-7 23 Oct 14:57:35 15:04:47 34° 62° (ENE) 15:11:59 .
M-CUBED/EXP-1 PRIME 23 Oct 14:58:49 15:01:16 19° 258° (WSW) 15:03:42 437.505
DX 1 23 Oct 14:59:06 15:03:29 71° 102° (ESE) 15:07:51 434.975-435.025
UKube-1 23 Oct 15:15:47 15:20:07 68° 102° (ESE) 15:24:24 .
ITAMSAT 1 23 Oct 15:16:53 15:20:40 21° 66° (ENE) 15:24:27 435.822/435.867
SO-50 23 Oct 15:33:57 15:38:25 47° 57° (ENE) 15:42:56 436.795
Gurwin Techsat 1B 23 Oct 15:35:46 15:39:49 22° 265° (W) 15:43:54 435.225
nSIGHT-1 23 Oct 15:45:16 15:48:02 26° 34° (NE) 15:50:48 .
ITUPSAT 1 23 Oct 16:09:09 16:13:19 29° 97° (E) 16:17:26 437.325
BEESAT 23 Oct 16:21:57 16:26:28 41° 99° (E) 16:30:57 436.000
PCSat 23 Oct 16:23:25 16:26:33 15° 48° (NE) 16:29:41 145.827
ISS 23 Oct 16:26:51 16:30:05 59° 40° (NE) 16:33:19 437.550
MOZHAYETS 4 23 Oct 16:43:09 16:47:45 87° 100° (E) 16:52:17
AO-7 23 Oct 16:49:16 16:57:13 49° 258° (WSW) 17:05:12 .
ITAMSAT 1 23 Oct 16:54:53 16:59:46 42° 261° (W) 17:04:43 435.822/435.867
CUBESAT XI-V 23 Oct 17:04:11 17:08:11 29° 97° (E) 17:12:10 437.345
SO-50 23 Oct 17:15:38 17:18:29 16° 251° (WSW) 17:21:21 436.795
nSIGHT-1 23 Oct 17:21:34 17:24:14 25° 229° (SW) 17:26:55 .
KKS-1 23 Oct 17:45:04 17:48:26 21° 95° (E) 17:51:48 437.445
ITUPSAT 1 23 Oct 17:47:06 17:50:58 25° 292° (WNW) 17:54:49 437.325
CUTE-I 23 Oct 17:51:32 17:55:12 19° 65° (ENE) 17:58:53 437.470
LilacSat-2 23 Oct 17:52:18 17:54:46 17° 69° (ENE) 17:57:14 437.200
DOVE 4 23 Oct 17:52:29 17:56:40 86° 73° (ENE) 18:01:03 437.250
XW-2D 23 Oct 17:54:38 17:57:07 17° 70° (ENE) 17:59:36 145.860 - 145.880
BEESAT 23 Oct 18:00:40 18:03:52 18° 294° (WNW) 18:07:05 436.000
PCSat 23 Oct 18:05:06 18:10:32 75° 246° (WSW) 18:15:54 145.827
ISS 23 Oct 18:05:29 18:06:09 10° 234° (SW) 18:06:49 437.550
XW-2B 23 Oct 18:07:36 18:10:38 23° 71° (ENE) 18:13:40 145.730 - 145.750
STARS 23 Oct 18:08:22 18:10:43 14° 93° (E) 18:13:03 437.465
XW-2C 23 Oct 18:30:21 18:34:01 47° 75° (ENE) 18:37:40 145.795 - 145.815
HO-68 23 Oct 18:41:19 18:47:18 30° 64° (ENE) 18:53:17 435.675
CUBESAT XI-V 23 Oct 18:41:44 18:45:22 23° 291° (WNW) 18:48:59 437.345
KAITUO 1B 23 Oct 19:03:36 19:07:20 84° 258° (WSW) 19:11:04 145.475/437.950
CUTE 1.7 + AOD 2 23 Oct 19:05:27 19:08:54 25° 71° (ENE) 19:12:22 437.475
SEEDS 23 Oct 19:06:30 19:08:56 15° 68° (ENE) 19:11:21 437.485
CUBEBUG 2 23 Oct 19:08:18 19:11:26 18° 67° (ENE) 19:14:36 437.445
NUDT-PHONESAT 23 Oct 19:11:36 19:15:18 67° 259° (W) 19:18:59 437.300
XW-2F 23 Oct 19:11:55 19:15:34 47° 260° (W) 19:19:13 145.980 - 146.000
KKS-1 23 Oct 19:21:02 19:24:58 31° 290° (WNW) 19:28:54 437.445
LilacSat-2 23 Oct 19:25:31 19:28:48 27° 263° (W) 19:32:05 437.200
XW-2D 23 Oct 19:27:50 19:31:03 26° 263° (W) 19:34:17 145.860 - 145.880
CUTE-I 23 Oct 19:29:43 19:34:49 48° 260° (W) 19:39:58 437.470
O/OREOS (USA 219) 23 Oct 19:34:56 19:37:34 15° 99° (E) 19:40:12 437.305
UWE-3 23 Oct 19:38:12 19:41:41 21° 69° (ENE) 19:45:10 435.000/436.395/437.385
XW-2B 23 Oct 19:41:59 19:44:42 19° 265° (W) 19:47:27 145.730 - 145.750
STARS 23 Oct 19:43:00 19:47:13 44° 287° (WNW) 19:51:24 437.465
XW-2A 23 Oct 19:48:13 19:50:56 22° 72° (ENE) 19:53:39 145.665 - 145.685
